Regional Weather Roundup
Issued by NWS

Home | Current Version | Previous Version | Graphics & Text | Print | Product List | Glossary On
Versions: 1 2 3 4 5 6 7 8 9 10 11 12 13 14 15 16 17 18 19 20 21 22 23 24 25 26 27 28 29 30 31 32 33 34 35 36 37 38 39 40 41 42 43 44 45 46 47 48 49 50
000
ASUS43 KLMK 261610
RWRKY
KENTUCKY REGIONAL WEATHER ROUNDUP
NATIONAL WEATHER SERVICE LOUISVILLE KY
1100 AM EST FRI DEC 26 2014

NOTE "FAIR" INDICATES FEW OR NO CLOUDS BELOW 12,000 FEET
WITH NO SIGNIFICANT WEATHER AND/OR OBSTRUCTIONS TO VISIBILITY.

KYZ001>023-026-027-061>063-070>075-261700-
WESTERN AND SOUTH CENTRAL KENTUCKY

CITY           SKY/WX    TMP DP  RH WIND       PRES   REMARKS
PADUCAH        MOSUNNY   48  37  65 S10       30.22S
HENDERSON      SUNNY     46  37  71 SW16      30.23R
OWENSBORO      SUNNY     46  39  76 S14       30.26R
HOPKINSVILLE   SUNNY     48  38  69 SW9       30.27R
BOWLING GREEN  SUNNY     48  38  68 S12       30.30S
GLASGOW        SUNNY     46  37  70 SW8       30.31S
$$

KYZ024-025-028>034-038-045-046-053-261700-
NORTH CENTRAL KENTUCKY

CITY           SKY/WX    TMP DP  RH WIND       PRES   REMARKS
LOUISVILLE/SDF MOSUNNY   47  37  68 S12       30.27R
LOUISVILLE/LOU SUNNY     45  36  70 S7        30.27S
FORT KNOX      SUNNY     45  37  73 S7        30.26S
$$

KYZ035>037-039>044-047>052-055>060-089>105-261700-
NORTHEAST KENTUCKY

CITY           SKY/WX    TMP DP  RH WIND       PRES   REMARKS
LEXINGTON      SUNNY     43  37  79 S13       30.29S
COVINGTON      PTSUNNY   43  34  70 S10       30.25R
FRANKFORT      SUNNY     44  36  73 S10       30.28R
$$

KYZ054-064>069-076>088-106>120-261700-
SOUTHEAST KENTUCKY

CITY           SKY/WX    TMP DP  RH WIND       PRES   REMARKS
JACKSON        MOSUNNY   40  33  76 VRB3      30.33R
LONDON         SUNNY     43  32  65 S5        30.34S
SOMERSET       SUNNY     41  34  75 S3        30.35S
MIDDLESBORO    SUNNY     39  33  80 CALM      30.36S
MONTICELLO     SUNNY     47  36  65 CALM      30.36S
$$



USA.gov is the U.S. government's official web portal to all federal, state and local government web resources and services.